Regional Weather Roundup
Issued by NWS

Home | Current Version | Previous Version | Text Only | Print | Product List | Glossary Off
Versions: 1 2 3 4 5 6 7 8 9 10 11 12 13 14 15 16 17 18 19 20 21 22 23 24 25 26 27 28 29 30 31 32 33 34 35 36 37 38 39 40 41 42 43 44 45 46 47 48 49 50

000
ASUS43 KBIS 291710
RWRND

NORTH DAKOTA REGIONAL WEATHER ROUNDUP
NATIONAL WEATHER SERVICE BISMARCK ND
1200 PM CDT SAT AUG 29 2015

NOTE: "FAIR" INDICATES FEW OR NO CLOUDS BELOW 12,000 FEET WITH NO
SIGNIFICANT WEATHER AND/OR OBSTRUCTIONS TO VISIBILITY.


NDZ001>003-009>011-017-291800-
NORTHWEST NORTH DAKOTA

CITY           SKY/WX    TMP DP  RH WIND       PRES   REMARKS
WILLISTON      PTSUNNY   78  55  44 S6        29.89F HAZE
MINOT          CLOUDY    80  58  46 SE6       29.89F HAZE
MINOT AFB      CLOUDY    78  58  50 S7        29.88F
$$

NDZ018>021-031>035-040>046-291800-
SOUTHWEST NORTH DAKOTA

CITY           SKY/WX    TMP DP  RH WIND       PRES   REMARKS
BISMARCK       CLOUDY    78  63  59 CALM      29.95F
DICKINSON      SUNNY     90  39  16 S14       29.95F HAZE
GARRISON         N/A     79  59  50 S3        29.93F
HETTINGER ARPT SUNNY     88  49  25 S9        30.00S HAZE
$$

NDZ004>008-012>016-024-026-027-054-291800-
NORTHEAST NORTH DAKOTA

CITY           SKY/WX    TMP DP  RH WIND       PRES   REMARKS
GRAND FORKS    MOSUNNY   73  66  78 S6        29.91S
GRND FRKS AFB  MOSUNNY   76  68  77 S2        29.91S
DEVILS LAKE    PTSUNNY   72  63  73 S6        29.91S
$$

NDZ022-023-025-028>030-036>039-047>053-291800-
SOUTHEAST NORTH DAKOTA

CITY           SKY/WX    TMP DP  RH WIND       PRES   REMARKS
FARGO          PTSUNNY   75  64  68 S14       29.95S
JAMESTOWN      MOSUNNY   74  67  78 SW6       29.93F
$$



USA.gov is the U.S. government's official web portal to all federal, state and local government web resources and services.